Date,TemperatureHighF,TemperatureAvgF,TemperatureLowF,DewpointHighF,DewpointAvgF,DewpointLowF,HumidityHigh,HumidityAvg,HumidityLow,PressureMaxIn,PressureMinIn,WindSpeedMaxMPH,WindSpeedAvgMPH,GustSpeedMaxMPH,PrecipitationSumIn
2013-2-1,45,42,40,45,42,40,100,100,100,0.00,40.00,3,1,9,0.02
2013-2-2,55,44,37,42,39,35,100,83,57,0.00,40.00,5,2,8,0.00
2013-2-3,42,40,38,42,40,38,100,100,100,0.00,40.00,3,1,6,0.00
2013-2-4,47,42,38,43,40,38,100,95,80,0.00,40.00,4,2,10,0.00
2013-2-5,48,42,39,44,40,38,100,96,71,0.00,40.00,8,4,18,0.49
2013-2-6,43,40,38,42,40,38,100,99,94,0.00,40.00,11,6,20,0.52
2013-2-7,43,36,33,39,36,33,100,97,85,0.00,40.00,5,3,12,0.22
2013-2-8,44,35,29,36,33,29,100,91,67,0.00,40.00,3,2,10,0.01
2013-2-9,42,39,36,42,39,34,100,98,93,0.00,40.00,2,1,7,0.05
2013-2-10,40,38,35,39,36,35,100,94,85,0.00,40.00,2,1,6,0.03
2013-2-11,43,40,37,43,40,35,100,99,91,0.00,40.00,2,1,9,0.01
2013-2-12,46,43,40,46,43,40,100,100,100,0.00,40.00,5,2,8,0.05
2013-2-13,47,42,36,43,41,36,100,97,75,0.00,40.00,3,1,7,0.05
2013-2-14,44,39,34,44,39,34,100,100,100,0.00,40.00,5,1,6,0.01
2013-2-15,61,47,39,46,43,39,100,88,55,0.00,40.00,3,2,12,0.01
2013-2-16,46,41,35,45,40,35,100,97,79,0.00,40.00,5,2,10,0.08
2013-2-17,41,36,33,40,36,33,100,99,93,0.00,40.00,2,1,5,0.15
2013-2-18,40,36,32,37,35,32,100,97,82,0.00,40.00,7,2,14,0.06
2013-2-19,47,39,35,39,37,35,100,92,67,0.00,40.00,3,2,9,0.05
2013-2-20,40,36,32,39,35,32,100,99,88,0.00,40.00,4,2,8,0.25
2013-2-21,39,37,35,39,37,35,100,100,100,0.00,40.00,4,2,9,0.30
2013-2-22,42,38,33,42,38,33,100,100,100,0.00,40.00,8,4,17,1.05
2013-2-23,40,36,33,39,35,33,100,98,85,0.00,40.00,3,2,11,0.22
2013-2-24,45,38,34,36,35,33,100,88,69,0.00,40.00,8,4,15,0.01
2013-2-25,42,37,32,40,36,32,100,99,79,0.00,40.00,5,2,14,0.67
2013-2-26,42,35,30,37,34,30,100,94,78,0.00,40.00,7,3,14,0.03
2013-2-27,45,40,37,42,39,35,100,96,83,0.00,40.00,7,3,14,0.01
2013-2-28,50,46,42,50,46,42,100,100,100,0.00,40.00,5,3,11,0.46